Location: Gülübeli Geçidi
(36.8411°N, 29.7411°E)
Time: 12:29:18
(UTC+00:00)

Cosmos 2333 Rocket - Pass Details

Date: 15 May 2026
Orbit: 840 x 862 km, 70.8° (Epoch: 7 June)

Event Time Altitude Azimuth Distance (km) Brightness Sun altitude
Rises 19:56:08 0° 332° (NNW) 3,422 6.7 -27.2°
Reaches altitude 10° 19:58:38 10° 328° (NNW) 2,486 5.6 -27.5°
Maximum altitude 20:04:11 55° 253° (WSW) 1,024 2.6 -28.1°
Enters shadow 20:04:29 54° 240° (WSW) 1,032 2.5 -28.1°
